Davenport, IA

1:39 AM CST on November 17, 2019 (GMT -0600)
Davenport Municipal

Weather History for KDVN - September, 2019

Change the Weather History Date:

Sunday, September 22, 2019

  Actual Average Record
Temperature  
Mean Temperature 67 °F 61 °F  
Max Temperature 74 °F 73 °F 91 °F (2017)
Min Temperature 59 °F 49 °F 35 °F (1999)
Degree Days  
Heating Degree Days 0 5  
Month to date heating degree days 5 63  
Since 1 July heating degree days 7 77  
Cooling Degree Days 2 1  
Month to date cooling degree days 145 60  
Year to date cooling degree days 985 764  
Growing Degree Days 18 (Base 50)    
Moisture  
Dew Point 66 °F    
Average Humidity 89    
Maximum Humidity 93    
Minimum Humidity 84    
Precipitation  
Precipitation 1.04 in 0.11 in 2.82 in (1970)
Month to date precipitation 4.42 2.20  
Year to date precipitation 36.45 28.02  
Snow  
Snow 0.00 in - - ()
Month to date snowfall 0.0  
Since 1 July snowfall 0.0  
Since 1 September snowfall 0.0  
Snow Depth 0.00 in    
Sea Level Pressure  
Sea Level Pressure 29.88 in    
Wind  
Wind Speed 8 mph (SW)    
Max Wind Speed 21 mph    
Max Gust Speed 29 mph    
Visibility 7 miles    
Events Rain , Thunderstorm    
T = Trace of Precipitation, MM = Missing Value Source: NWS Daily Summary

Daily Weather History Graph

Daily Weather History Graph

Search for Another Location

Airport or City:

Astronomy

Sep. 22, 2019 Rise Set
Actual Time 6:49 AM CDT 6:59 PM CDT
Civil Twilight 6:21 AM CDT 7:27 PM CDT
Nautical Twilight 5:49 AM CDT 7:59 PM CDT
Astronomical Twilight 5:16 AM CDT 8:33 PM CDT
Moon No Moon Rise 3:00 PM CDT (9/22)
Length of Visible Light 13h 05m
Length of Day
12h 10m
Last Quarter, 44% of the Moon is Illuminated
Sep 22
Last Quarter
Sep 28
New
Oct 5
First Quarter
Oct 13
Full
Oct 21
Last Quarter

Hourly Weather History & Observations

Time (CDT) Temp. Dew Point Humidity Pressure Visibility Wind Dir Wind Speed Gust Speed Precip Events Conditions
12:52 AM 73.0 °F 70.0 °F 90% 29.94 in 10.0 mi South 6.9 mph - N/A   Scattered Clouds
1:25 AM 73.0 °F 70.0 °F 90% 29.95 in 10.0 mi South 9.2 mph - N/A   Partly Cloudy
1:52 AM 73.0 °F 70.0 °F 90% 29.91 in 10.0 mi South 11.5 mph - N/A   Mostly Cloudy
2:52 AM 73.9 °F 70.0 °F 87% 29.88 in 10.0 mi South 12.7 mph 21.9 mph N/A   Mostly Cloudy
3:39 AM 73.0 °F 70.0 °F 90% 29.90 in 8.0 mi South 20.7 mph 28.8 mph 0.00 in Rain , Thunderstorm Light Rain
3:52 AM 73.0 °F 70.0 °F 90% 29.88 in 3.0 mi South 17.3 mph 27.6 mph 0.02 in Rain Rain
4:52 AM 73.0 °F 70.0 °F 90% 29.88 in 8.0 mi South 13.8 mph 25.3 mph 0.03 in Rain Light Rain
4:59 AM 72.0 °F 69.1 °F 91% 29.89 in 8.0 mi South 12.7 mph 23.0 mph 0.00 in Rain Light Rain
5:11 AM 72.0 °F 69.1 °F 91% 29.89 in 7.0 mi South 15.0 mph 23.0 mph 0.01 in Rain Light Rain
5:20 AM 72.0 °F 69.1 °F 91% 29.89 in 6.0 mi South 12.7 mph 21.9 mph 0.02 in Rain Light Rain
5:29 AM 72.0 °F 69.1 °F 91% 29.89 in 10.0 mi South 13.8 mph - 0.02 in   Overcast
5:52 AM 72.0 °F 69.1 °F 91% 29.86 in 10.0 mi South 10.4 mph - 0.02 in   Overcast
6:13 AM 72.0 °F 69.1 °F 91% 29.89 in 10.0 mi South 11.5 mph 21.9 mph N/A   Overcast
6:52 AM 72.0 °F 68.0 °F 87% 29.86 in 10.0 mi South 11.5 mph - N/A   Overcast
7:37 AM 71.1 °F 68.0 °F 90% 29.89 in 3.0 mi SSW 11.5 mph - 0.06 in Rain Rain
7:41 AM 71.1 °F 68.0 °F 90% 29.89 in 1.0 mi SSW 11.5 mph - 0.13 in Rain Heavy Rain
7:43 AM 71.1 °F 68.0 °F 90% 29.89 in 0.8 mi SSW 11.5 mph - 0.15 in Rain Heavy Rain
7:50 AM 69.8 °F 68.0 °F 94% 29.89 in 0.8 mi SW 11.5 mph 19.6 mph 0.25 in Rain Heavy Rain
7:52 AM 70.0 °F 68.0 °F 93% 29.86 in 0.8 mi SW 12.7 mph 19.6 mph 0.25 in Rain Heavy Rain
8:22 AM 69.1 °F 66.9 °F 93% 29.90 in 2.0 mi SW 13.8 mph 19.6 mph 0.19 in Rain Rain
8:25 AM 69.1 °F 66.0 °F 90% 29.90 in 3.0 mi SW 12.7 mph 19.6 mph 0.20 in Rain Rain
8:50 AM 69.8 °F 66.2 °F 88% 29.90 in 6.0 mi SW 5.8 mph - 0.24 in Rain Light Rain
8:52 AM 69.1 °F 66.0 °F 90% 29.88 in 6.0 mi SSW 4.6 mph - 0.24 in Rain Light Rain
9:52 AM 69.1 °F 66.9 °F 93% 29.88 in 3.0 mi South 5.8 mph - 0.06 in Rain Light Rain
10:07 AM 69.1 °F 66.9 °F 93% 29.89 in 10.0 mi South 6.9 mph - 0.00 in Rain Light Rain
10:22 AM 69.1 °F 66.9 °F 93% 29.90 in 10.0 mi SSW 8.1 mph - 0.00 in Rain Light Rain
10:40 AM 70.0 °F 66.9 °F 90% 29.89 in 10.0 mi SSW 5.8 mph - 0.00 in Rain Light Rain
10:52 AM 70.0 °F 66.9 °F 90% 29.88 in 10.0 mi SSW 6.9 mph - 0.00 in Rain Light Rain
11:52 AM 69.1 °F 66.0 °F 90% 29.88 in 8.0 mi SSW 9.2 mph 18.4 mph 0.03 in Rain Light Rain
12:33 PM 69.1 °F 66.0 °F 90% 29.91 in 4.0 mi SW 10.4 mph - 0.03 in Rain Rain
12:39 PM 69.1 °F 66.0 °F 90% 29.90 in 2.5 mi SW 12.7 mph 19.6 mph 0.04 in Rain Rain
12:44 PM 69.1 °F 66.0 °F 90% 29.89 in 2.5 mi SW 6.9 mph 19.6 mph 0.06 in Rain Rain
12:52 PM 69.1 °F 66.0 °F 90% 29.87 in 3.0 mi SW 6.9 mph - 0.07 in Rain Light Rain
1:19 PM 69.1 °F 66.0 °F 90% 29.89 in 10.0 mi SW 5.8 mph - 0.02 in Rain Light Rain
1:52 PM 69.1 °F 66.0 °F 90% 29.86 in 5.0 mi SSW 5.8 mph - 0.03 in Rain Rain
2:01 PM 69.1 °F 66.0 °F 90% 29.87 in 1.8 mi SW 6.9 mph - 0.05 in Rain Heavy Rain
2:20 PM 69.1 °F 66.0 °F 90% 29.88 in 2.5 mi WSW 6.9 mph - 0.11 in Rain Rain
2:36 PM 66.9 °F 64.0 °F 90% 29.87 in 1.2 mi SW 5.8 mph - 0.21 in Rain Heavy Rain
2:50 PM 66.2 °F 64.4 °F 94% 29.87 in 2.5 mi SSW 6.9 mph - 0.25 in Rain Heavy Rain
2:52 PM 66.9 °F 64.9 °F 93% 29.84 in 2.5 mi South 4.6 mph - 0.26 in Rain Rain
3:02 PM 68.0 °F 64.9 °F 90% 29.83 in 5.0 mi SE 9.2 mph - 0.01 in Rain Light Rain
3:52 PM 69.1 °F 64.9 °F 87% 29.81 in 10.0 mi NW 5.8 mph - 0.02 in   Mostly Cloudy
3:59 PM 68.0 °F 64.9 °F 90% 29.83 in 10.0 mi WNW 4.6 mph - N/A   Mostly Cloudy
4:17 PM 69.1 °F 64.9 °F 87% 29.83 in 10.0 mi Calm Calm - N/A   Overcast
4:34 PM 69.1 °F 64.9 °F 87% 29.84 in 10.0 mi Calm Calm - N/A   Overcast
4:52 PM 69.1 °F 64.9 °F 87% 29.81 in 10.0 mi NW 3.5 mph - N/A   Overcast
5:14 PM 69.1 °F 64.9 °F 87% 29.84 in 10.0 mi WNW 5.8 mph - N/A   Overcast
5:34 PM 69.1 °F 64.9 °F 87% 29.84 in 10.0 mi NW 5.8 mph - N/A   Overcast
5:52 PM 69.1 °F 64.9 °F 87% 29.83 in 7.0 mi West 4.6 mph - 0.00 in Rain Light Rain
6:52 PM 68.0 °F 64.9 °F 90% 29.83 in 10.0 mi WSW 5.8 mph - 0.00 in   Overcast
7:03 PM 68.0 °F 64.9 °F 90% 29.86 in 10.0 mi WSW 5.8 mph - N/A   Mostly Cloudy
7:52 PM 66.9 °F 64.9 °F 93% 29.86 in 10.0 mi WSW 5.8 mph - N/A   Overcast
8:52 PM 66.9 °F 64.0 °F 90% 29.88 in 10.0 mi West 5.8 mph - N/A   Partly Cloudy
9:52 PM 66.9 °F 64.0 °F 90% 29.88 in 10.0 mi West 9.2 mph - 0.00 in   Overcast
10:12 PM 64.0 °F 61.0 °F 90% 29.92 in 10.0 mi NNW 12.7 mph 19.6 mph 0.01 in   Overcast
10:21 PM 64.0 °F 61.0 °F 90% 29.93 in 10.0 mi NW 10.4 mph 19.6 mph 0.01 in   Overcast
10:30 PM 64.0 °F 61.0 °F 90% 29.93 in 10.0 mi NW 9.2 mph 18.4 mph 0.01 in   Overcast
10:52 PM 63.0 °F 61.0 °F 93% 29.92 in 10.0 mi NW 8.1 mph - 0.01 in   Overcast
11:33 PM 62.1 °F 59.0 °F 90% 29.95 in 10.0 mi NW 6.9 mph - N/A   Mostly Cloudy
11:52 PM 61.0 °F 57.9 °F 90% 29.93 in 10.0 mi NW 4.6 mph - N/A   Partly Cloudy